DELTA 1 DEB, 8314

Orbit data source: Space-Track

DELTA 1 DEB, 8314 is space debris in SSO originally from a launch on Sun, 23 Jul 1972 UTC launched from the Air Force Western Test Range (AFWTR). Debris objects in space refer to the collection of defunct objects orbiting the Earth. Examples of debris include non-operational satellites, rocket bodies, and fragments generated from explosions, collisions, or faulty payload assembly.

Loading next visibility...
Identifier
8314, 1972-058EG
Orbit
SSO
Country
Flag of USUS
Related business
Manufacturer
Unknown
Mission
Spacecraft
Bus & Motor
Unknown
Mass
Unknown
Launch date (UTC)
1972-07-23 (54 years ago)
Launch vehicle
Unknown
Launch site
Air Force Western Test Range (AFWTR)
Object type
Payload
Rocket body
Debris
Shape & HBR
Unknown shape, 0.1 m
Radar Cross Section
Medium (>0.1 m² and <1 m²)

Expand to show TLE details & history
Last TLE update: 12 hours ago

TLE from 12 hours ago
0 DELTA 1 DEB
1  8314U 72058EG  26150.11896014  .00003696  00000-0  34000-3 0  9996
2  8314  98.4296  27.1321 0069716 280.2733  79.0630 14.93648419845131
Epoch: 2026-05-30T02:51Z
TLE epoch observation values (Epoch: 2026-05-30T02:51:18.156Z)
Latitude
0.00008°
Longitude
96.66687°
Altitude
580.707 km
Speed
7.575 km/s
True Right ascension
01h 48m 31s
True Declination
0° 00' 00"
Sunlit
Object was in daylight at epoch
Visualization orbit readout
Latitude
Unknown
Longitude
Unknown
Altitude
Unknown
Speed
Unknown
Apparent Right ascension
Unknown
Apparent Declination
Unknown
Sunlit
N/A
Visualization observer readout
Local Sidereal Time
00:42:38
Azimuth
Unknown
Elevation
Unknown
Doppler factor
Unknown
Orbital elements
Apogee altitude
632.153 km
Perigee altitude
535.084 km
Semi-major axis
6,961.755 km
Eccentricity
0.00697
Inclination
98.4296°
RAAN
27.1321°
Arg. of periapsis
280.2733°
True anomaly
79.84865°
Mean anomaly
79.063°
Eccentric anomaly
79.4557°
Mean motion
3.7365 °/min
Orbital period
96.35 mins
BSTAR
0.00034
Loading maneuver chart data...
Computing Atmospheric mass density...
Loading historical data...
Loading historical data...
Loading historical data...
Loading historical data...
Loading historical data...
Loading historical data...
Loading historical data...

Documentation

Showing up to 5 results
|